Вернуться в каталог

ONEWEB-0605

АктивенСвязьPO
NORAD 54669·PAYLOAD·🇬🇧 United Kingdom

Запущен Dec 8, 2022 с Cape Canaveral Space Force Station

Loading…

Ближайшие Пролёты (ближайшие 24 часа)

TLE

СвежийSource: CelesTrak SupGP

Эпоха: Sep 14, 2026, 16:39 UTC

1 54669C 22166AD  26257.69427500  .00001925  00000+0  46659-2 0  2577
2 54669  87.9273 226.1684 0002211  99.5256 296.1935 13.21820386    19

Отслеживайте ONEWEB-0605 в реальном времени с AllMySat

Download on the App Store